This is the latest recevied weather packets stored in our database for station/object N3TTT-13. If no packets are shown the sender has not sent any weather packets the latest 1 day(s).
| Time | Temp. | Humidity | Pressure | Rain* | Wind** | Luminosity | Snow |
|---|---|---|---|---|---|---|---|
| 1778072785 | 20.56° C | 70% | 1011.1 hPa | 0 mm | 0.89 m/s, 189° | 260 W/m² | - |
| 1778072482 | 20.56° C | 69% | 1011.1 hPa | 0 mm | 1.34 m/s, 183° | 172 W/m² | - |
| 1778072180 | 20° C | 70% | 1011.1 hPa | 0 mm | 1.34 m/s, 298° | 278 W/m² | - |
| 1778071877 | 20° C | 70% | 1011.4 hPa | 0 mm | 1.34 m/s, 164° | 183 W/m² | - |
| 1778071575 | 20° C | 71% | 1011.1 hPa | 0 mm | 0.89 m/s, 253° | 151 W/m² | - |
| 1778071273 | 20° C | 71% | 1011.4 hPa | 0 mm | 0.45 m/s, 306° | 137 W/m² | - |
| 1778070970 | 20° C | 71% | 1011.4 hPa | 0 mm | 1.34 m/s, 126° | 154 W/m² | - |
| 1778070669 | 20° C | 71% | 1011.4 hPa | 0 mm | 0.89 m/s, 280° | 119 W/m² | - |
| 1778070365 | 19.44° C | 71% | 1011.4 hPa | 0 mm | 0.89 m/s, 272° | 169 W/m² | - |
| 1778070063 | 19.44° C | 72% | 1011.3 hPa | 0 mm | 0.45 m/s, 253° | 145 W/m² | - |
| 1778069760 | 19.44° C | 72% | 1011.5 hPa | 0 mm | 1.34 m/s, 240° | 123 W/m² | - |
| 1778069456 | 19.44° C | 71% | 1011.7 hPa | 0 mm | 3.13 m/s, 136° | 121 W/m² | - |
| 1778069155 | 20° C | 71% | 1011.4 hPa | 0 mm | 0.45 m/s, 251° | 182 W/m² | - |
| 1778068851 | 19.44° C | 72% | 1011.4 hPa | 0 mm | 0.89 m/s, 184° | 161 W/m² | - |
| 1778068549 | 18.89° C | 73% | 1011.3 hPa | 0 mm | 1.79 m/s, 188° | 107 W/m² | - |
| 1778068248 | 18.89° C | 74% | 1011.4 hPa | 0 mm | 1.34 m/s, 124° | 83 W/m² | - |
| 1778067945 | 18.89° C | 74% | 1011.3 hPa | 0 mm | 1.34 m/s, 148° | 51 W/m² | - |
| 1778067643 | 18.33° C | 75% | 1011.1 hPa | 0 mm | 0.89 m/s, 231° | 60 W/m² | - |
| 1778067341 | 18.33° C | 75% | 1011 hPa | 0 mm | 0.89 m/s, 173° | 69 W/m² | - |
| 1778067038 | 18.33° C | 75% | 1011.5 hPa | 0 mm | 0.45 m/s, 261° | 62 W/m² | - |
| 1778066734 | 18.33° C | 76% | 1011.3 hPa | 0 mm | 0.89 m/s, 124° | 55 W/m² | - |
| 1778066432 | 18.33° C | 75% | 1011 hPa | 0 mm | 0.89 m/s, 222° | 57 W/m² | - |
| 1778066130 | 18.89° C | 74% | 1011.1 hPa | 0 mm | 1.34 m/s, 303° | 51 W/m² | - |
| 1778065827 | 19.44° C | 74% | 1011 hPa | 0 mm | 0.45 m/s, 200° | 75 W/m² | - |
| 1778065524 | 18.89° C | 74% | 1011.3 hPa | 0 mm | 0.89 m/s, 185° | 83 W/m² | - |
* Rain latest hour (hover to see other rain measurements)
** Current wind speed in m/s (hover to see current wind gust speed)